Regional Weather Roundup
Issued by NWS

Home | Current Version | Previous Version | Graphics & Text | Print | Product List | Glossary On
Versions: 1 2 3 4 5 6 7 8 9 10 11 12 13 14 15 16 17 18 19 20 21 22 23 24 25 26 27 28 29 30 31 32 33 34 35 36 37 38 39 40 41 42 43 44 45 46 47 48 49 50
000
ASUS43 KMKX 240810
RWRWI

WISCONSIN REGIONAL WEATHER ROUNDUP
NATIONAL WEATHER SERVICE MILWAUKEE/SULLIVAN WI
200 AM CST TUE JAN 24 2017

NOTE: "FAIR" INDICATES FEW OR NO CLOUDS BELOW 12,000 FEET WITH NO
SIGNIFICANT WEATHER AND/OR OBSTRUCTIONS TO VISIBILITY.

WIZ001-002-006>008-014>016-023>028-240900-
NORTHWEST WISCONSIN

CITY           SKY/WX    TMP DP  RH WIND       PRES   REMARKS
SUPERIOR ARPT  CLOUDY    33  32  98 W3        29.85R
ASHLAND        CLOUDY    34  32  92 SW5       29.84R WCI  30
HAYWARD        CLOUDY    33  32  96 CALM      29.83R FOG
SIREN          LGT SNOW  32  31  98 W5        29.86R WCI  27
CUMBERLAND     CLOUDY    32  32 100 W3        29.84R FOG
RICE LAKE      CLOUDY    33  32  98 CALM      29.85S FOG
CHETEK         CLOUDY    32  32  99 CALM      29.84S
LADYSMITH      LGT SNOW  33  32  98 CALM      29.84S
EAU CLAIRE     CLOUDY    32  31  96 SW3       29.85R FOG
MENOMONIE        N/A    N/A N/A N/A MISG        N/A
NEW RICHMOND   CLOUDY    32  32 100 NW3       29.86R FOG
OSCEOLA        CLOUDY    32  32 100 CALM      29.89R FOG
$$

WIZ003>005-009-010-017-018-240900-
NORTH CENTRAL WISCONSIN

CITY           SKY/WX    TMP DP  RH WIND       PRES   REMARKS
MANITOWISH WTR CLOUDY    32  32 100 W3        29.79R
ARBOR VITAE    LGT SNOW  36  35  96 N3        29.79R VSB 3/4
WOODRUFF       LGT SNOW  36  35  96 N3        29.79R VSB 3/4
RHINELANDER    CLOUDY    35  35 100 CALM      29.79R FOG
EAGLE RIVER    CLOUDY    33  33 100 NW5       29.78R FOG     WCI  28
LAND O LAKES   CLOUDY    34  34 100 NW3       29.79S FOG
PHILLIPS       CLOUDY    32  32 100 CALM      29.80R
TOMAHAWK       FOG       33  32  98 W3        29.80R VSB 1
MEDFORD        CLOUDY    32  31  98 CALM      29.80S
MERRILL        FOG       34  34 100 CALM        N/A  VSB 3/4
$$

WIZ029-030-035-036-043>047-240900-
CENTRAL WISCONSIN

CITY           SKY/WX    TMP DP  RH WIND       PRES   REMARKS
WAUSAU         CLOUDY    34  33  96 NW7       29.80R WCI  28
MOSINEE        CLOUDY    32  32 100 NW6       29.82R FOG     WCI  26
MARSHFIELD     CLOUDY    33  31  92 NW6       29.81R FOG     WCI  28
STEVENS POINT  DRZL/FOG  32  32 100 NW6       29.82R VSB 3/4 WCI  26
WAUPACA        CLOUDY    37  36  96 CALM      29.81S FOG
WAUTOMA        CLOUDY    34  33  96 W8        29.82S FOG     WCI  27
WISC RAPIDS    CLOUDY    34  33  96 NW5       29.83R WCI  30
CAMP DOUGLAS   CLOUDY    33  33  98 N3        29.84R
$$

WIZ011>013-019>022-031-037>040-048>050-240900-
NORTHEAST WISCONSIN

CITY           SKY/WX    TMP DP  RH WIND       PRES   REMARKS
ANTIGO         FOG       33  33 100 NW3       29.79R VSB 1/2
SHAWANO        CLOUDY    37  35  93 W3        29.80R
OCONTO         CLOUDY    33  33  99 CALM      29.79R VSB 1/2
STURGEON BAY   FOG       32  32 100 N3        29.79S VSB 1/4
GREEN BAY      CLOUDY    36  35  96 W5        29.79R WCI  32
MANITOWOC      CLOUDY    35  34  96 CALM      29.80R
APPLETON       CLOUDY    34  34 100 W7        29.78R FOG     WCI  28
CLINTONVILLE   CLOUDY    34  34 100 NW6       29.80R WCI  29
OSHKOSH        CLOUDY    35  33  92 W5        29.80R FOG     WCI  31
$$

WIZ032>034-041-042-053>061-240900-
SOUTHWEST WISCONSIN

CITY           SKY/WX    TMP DP  RH WIND       PRES   REMARKS
LA CROSSE      CLOUDY    35  31  85 N3        29.86R
SPARTA         CLOUDY    32  32 100 CALM      29.86S FOG
VIROQUA        CLOUDY    32  32 100 CALM      29.83S
BOSCOBEL       CLOUDY    35  32  88 CALM      29.86S
PRAIRIE DU CHI CLOUDY    34  31  90 CALM      29.86S
PLATTEVILLE    CLOUDY    33  33  99 W3        29.85S
$$

WIZ056-057-062-063-064-067-068-240900-
SOUTH CENTRAL WISCONSIN

CITY           SKY/WX    TMP DP  RH WIND       PRES   REMARKS
REEDSBURG      CLOUDY    34  33  95 W6        29.84R WCI  29
BARABOO/DELLS  CLOUDY    33  32  94 W5        29.83R WCI  29
LONE ROCK      CLOUDY    35  31  85 W3        29.86R
MINERAL POINT  CLOUDY    34  34 100 CALM      29.83S
MADISON        CLOUDY    35  31  85 W6        29.84R WCI  30
MIDDLETON      CLOUDY    36  36 100 W5        29.84R WCI  32
WATERTOWN      CLOUDY    34  34 100 W7        29.82R WCI  28
MONROE         CLOUDY    34  32  93 NW3       29.83S
JANESVILLE     CLOUDY    36  34  93 W6        29.84R WCI  31
$$

WIZ051-052-058>065-066-070>072-240900-
SOUTHEAST WISCONSIN

CITY           SKY/WX    TMP DP  RH WIND       PRES   REMARKS
MILWAUKEE      CLOUDY    38  34  85 NW6       29.81R WCI  33
WAUKESHA       FOG       32  32 100 W7        29.82R VSB 1/2 WCI  26
MILWAUKEE/TIMM CLOUDY    36  32  87 W6        29.82R WCI  31
RACINE         CLOUDY    37  33  85 W6        29.82R WCI  32
KENOSHA        CLOUDY    37  34  89 W7        29.81R WCI  32
FOND DU LAC    CLOUDY    36  32  85 W6        29.80S WCI  31
SHEBOYGAN      CLOUDY    35  33  92 W6        29.79R WCI  30
WEST BEND      CLOUDY    34  34 100 W6        29.80R WCI  29
JUNEAU         FOG       33  33  99 W6        29.82S VSB 1/4 WCI  28
$$

LSZ147-162-240900-
LAKE SUPERIOR

STATION/POSITION TIME  TEMP    WIND        PRES    WAVE
                       AIR SEA DIR/SP/G            HT/PER
                 (UTC) (F)     (DEG/KT/KT) (MB)    (FT/S)
DEVILS ISLAND    0700   35     260/  8/  9 1010.3S
PORT WING        0740   34     210/  3/  4 1010.8R
SAXON HARBOR     0740   34     190/  2/  5 1010.2R
$$

LMZ867-665-643>646-240900-
LAKE MICHIGAN

STATION/POSITION TIME  TEMP    WIND        PRES    WAVE
                       AIR SEA DIR/SP/G            HT/PER
                 (UTC) (F)     (DEG/KT/KT) (MB)    (FT/S)
NORTHPORT PIER   0740   33     310/  3/  6 1008.5S
SISTER BAY       0735   32        CALM       N/A
KEWAUNEE LAKESHO 0748   35      CALM  /  3 1008.1S
SHEBOYGAN LAKESH 0800   36     270/  8/ 10 1009.0R
PORT WASHINGTON  0730   37     290/  4/  6 1010.2R
KENOSHA   LAKESH 0800   37     290/  5/  9 1009.8
$$

TC  - TEMPERATURE IN CELSIUS
VSB - VISIBILITY IN STATUTE MILES
WCI - WIND CHILL INDEX
HX  - HEAT INDEX




USA.gov is the U.S. government's official web portal to all federal, state and local government web resources and services.